Tracking 28125 objects as of 2-Oct-2023
HD Live streaming from Space Station
objects crossing your sky now

ASTRA 1G

Track ASTRA 1G now!
ASTRA 1G is classified as:


NORAD ID: 25071
Int'l Code: 1997-076A
Perigee: 36,098.9 km
Apogee: 36,189.3 km
Inclination: 7.2 °
Period: 1,454.0 minutes
Semi major axis: 42515 km
RCS: 1.138 m2 (large)
Launch date: December 2, 1997
Source: SOCIETE EUROPEENNE DES SATELLITES (SES)
Launch site: TYURATAM MISSILE AND SPACE COMPLEX (TTMTR)

Direct-to-home tv; multimedia; 32 Ku-band transponders; Europe
Your satellite tracking list
Your tracking list is empty




NASA's NSSDC Master Catalog

Two Line Element Set (TLE):
1 25071U 97076A   23274.97947219  .00000039  00000-0  00000+0 0  9991
2 25071   7.2028  63.5783 0010636 122.8475  66.6497  0.99034902 94606
Source of the keplerian elements: AFSPC